sat.trackr.live / text

‹ back to catalog

WGS F3 (USA 211)

NORAD 36108 · 2009-068A

PAYLOAD ACTIVE UNKNOWN

§ Identity

Operator
Country
US
Launch date
2009-12-06
Launch site
AFETR
Launch vehicle
Mass (kg)
RCS (m²)
10.00

Purposes: comms

External: N2YO · Heavens-Above · Gunter

§ Orbital elements

Epoch: 2026-05-25T03:17:33.603072Z

Period
1,436.12 min
Inclination
0.3544°
Eccentricity
0.0000057
Mean motion
1.00270147 rev/d
Perigee alt
35,786.8 km
Apogee alt
35,787.3 km
Semi-major
42,165.2 km
B*
0.0000e+0
RAAN
85.6931°
Arg perigee
311.9686°
Mean anomaly
124.4751°
Rev number
4,636

§ Raw data

WGS F3 (USA 211)1 36108U 09068A   26145.13719448  .00000062  00000+0  00000+0 0  99922 36108   0.3544  85.6931 0000057 311.9686 124.4751  1.00270147 46369

JSON: /api/v1/satellites/36108 · /tle

For live sub-satellite position, see the globe view (requires WebGL).

§ Visibility from observer

Set your observer location to see the next 7 days of passes ≥ 10°. The values pass through the URL so the page stays shareable.

No JS? Fill the form by hand. The geolocation button needs JavaScript.